Terminal Aerodrome Forecast
Issued by NWS

Home | Current Version | Previous Version | Text Only | Print | Product List | Glossary On
Versions: 1 2 3 4 5 6 7 8 9 10 11 12 13 14 15 16 17 18 19 20 21 22 23 24 25 26 27 28 29 30 31 32 33 34 35 36 37 38 39 40 41 42 43 44 45 46 47 48 49 50
000
FTAK31 PANC 291737
TAFASN
TAF
PASN 291737Z 2918/3018 08010KT 6SM -SHRA BR FEW008 BKN025 OVC050
     FM300300 08010KT 3SM -SHRA BR BKN008 OVC015
     FM301400 05012KT 5SM BR VCSH SCT008 BKN025=

USA.gov is the U.S. government's official web portal to all federal, state and local government web resources and services.